Location: Kampong Paya Jaras Dalam
(3.1833°N, 101.5500°E)
Time: 04:56:04
(UTC+00:00)

USA 229 DEB - Pass Details

Date: 15 May 2026
Orbit: 844 x 1364 km, 63.4° (Epoch: 10 January)

Event Time Altitude Azimuth Distance (km) Brightness Sun altitude
Rises 13:32:18 0° 340° (NNW) 4,295 7.4 -32.1°
Reaches altitude 10° 13:35:06 10° 342° (NNW) 3,363 6.7 -32.7°
Enters shadow 13:42:53 74° 29° (NNE) 1,408 4.1 -34.4°
